,,,PA_Meas_PMT16A,,PR_Meas_QMR101_102,,RH_Meas_QMH101,,SR_Meas_QMS101,,TA_Meas_QMH101,,GenWind,,GenWind,
date,time,status,PA,status,PR,status,RH,status,SR,status,TA,status,DirAvg,status,SpdAvg,
2009-01-25, 00:00:04,VALID,1003.28,VALID,0,VALID,90.7989,VALID,0.100563,VALID,25.6506,VALID,23,VALID,0.683594,
2009-01-25, 00:01:04,VALID,1003.26,VALID,0,VALID,90.593,VALID,0.100563,VALID,25.748,VALID,29,VALID,1.00391,
2009-01-25, 00:02:04,VALID,1003.24,VALID,0,VALID,90.2497,VALID,0,VALID,25.8434,VALID,32,VALID,0.846484,
2009-01-25, 00:03:04,VALID,1003.22,VALID,0,VALID,89.8377,VALID,0.100563,VALID,25.9622,VALID,24,VALID,1.10859,
2009-01-25, 00:04:04,VALID,1003.2,VALID,0,VALID,89.3876,VALID,0,VALID,26.0401,VALID,25,VALID,0.840234,
2009-01-25, 00:05:04,VALID,1003.18,VALID,0,VALID,89.1358,VALID,0.100563,VALID,26.0985,VALID,34,VALID,1.16875,
2009-01-25, 00:06:04,VALID,1003.17,VALID,0,VALID,88.6628,VALID,0.100563,VALID,26.2134,VALID,28,VALID,1.01992,
2009-01-25, 00:07:04,VALID,1003.15,VALID,0,VALID,88.1593,VALID,0.100563,VALID,26.3323,VALID,25,VALID,1.0707,
2009-01-25, 00:08:04,VALID,1003.13,VALID,0,VALID,87.6253,VALID,0.100563,VALID,26.4277,VALID,41,VALID,0.778906,
2009-01-25, 00:09:04,VALID,1003.11,VALID,0,VALID,87.2973,VALID,0,VALID,26.4667,VALID,13,VALID,0.738672,
2009-01-25, 00:10:04,VALID,1003.07,VALID,0,VALID,87.1218,VALID,0,VALID,26.4687,VALID,24,VALID,0.566797,
2009-01-25, 00:11:04,VALID,1003.09,VALID,0,VALID,87.0303,VALID,0,VALID,26.4492,VALID,24,VALID,0.2,
2009-01-25, 00:12:04,VALID,1003.07,VALID,0,VALID,87.0837,VALID,0,VALID,26.4297,VALID,62,VALID,0.719531,
2009-01-25, 00:13:04,VALID,1002.99,VALID,0,VALID,87.0303,VALID,0,VALID,26.4317,VALID,59,VALID,0.432031,
2009-01-25, 00:14:04,VALID,1002.99,VALID,0,VALID,86.9006,VALID,0,VALID,26.3907,VALID,59,VALID,0.130078,
2009-01-25, 00:15:04,VALID,1002.94,VALID,0,VALID,86.9998,VALID,0,VALID,26.3323,VALID,30,VALID,0.498437,
2009-01-25, 00:16:04,VALID,1002.92,VALID,0,VALID,87.2286,VALID,0,VALID,26.2544,VALID,29,VALID,0.634766,
2009-01-25, 00:17:04,VALID,1002.94,VALID,0,VALID,87.7626,VALID,0,VALID,26.1959,VALID,30,VALID,0.698828,
2009-01-25, 00:18:04,VALID,1002.94,VALID,0,VALID,87.8694,VALID,0,VALID,26.2154,VALID,34,VALID,1.03867,
2009-01-25, 00:19:04,VALID,1002.92,VALID,0,VALID,87.6406,VALID,0,VALID,26.157,VALID,24,VALID,0.533984,
2009-01-25, 00:20:04,VALID,1002.87,VALID,0,VALID,87.9762,VALID,0,VALID,26.12,VALID,25,VALID,0.469531,
2009-01-25, 00:21:04,VALID,1002.87,VALID,0,VALID,88.2433,VALID,0,VALID,26.0596,VALID,38,VALID,0.501172,
2009-01-25, 00:22:04,VALID,1002.84,VALID,0,VALID,88.4721,VALID,0,VALID,26.0206,VALID,47,VALID,0.54375,
2009-01-25, 00:23:04,VALID,1002.78,VALID,0,VALID,88.5942,VALID,0,VALID,26.0206,VALID,43,VALID,0.527344,
2009-01-25, 00:24:04,VALID,1002.78,VALID,0,VALID,88.701,VALID,0,VALID,26.0206,VALID,32,VALID,0.589453,
2009-01-25, 00:25:04,VALID,1002.73,VALID,0,VALID,88.6018,VALID,0.100563,VALID,26.0187,VALID,56,VALID,0.511719,
2009-01-25, 00:26:04,VALID,1002.74,VALID,0,VALID,88.5942,VALID,0,VALID,25.9797,VALID,56,VALID,0.0191406,
2009-01-25, 00:27:04,VALID,1002.7,VALID,0,VALID,88.6857,VALID,0.100563,VALID,25.9622,VALID,56,VALID,0.204297,
2009-01-25, 00:28:04,VALID,1002.7,VALID,0,VALID,88.907,VALID,0,VALID,25.9427,VALID,56,VALID,0.0996094,
2009-01-25, 00:29:04,VALID,1002.72,VALID,0,VALID,89.1206,VALID,0.100563,VALID,25.9602,VALID,56,VALID,0.492188,
2009-01-25, 00:30:04,VALID,1002.7,VALID,0,VALID,89.0443,VALID,0.100563,VALID,25.9817,VALID,55,VALID,0.285937,
2009-01-25, 00:31:04,VALID,1002.7,VALID,0,VALID,89.029,VALID,0.100563,VALID,26.0012,VALID,55,VALID,0.2875,
2009-01-25, 00:32:04,VALID,1002.68,VALID,0,VALID,89.0367,VALID,0.100563,VALID,25.9797,VALID,55,VALID,0.390625,
2009-01-25, 00:33:04,VALID,1002.68,VALID,0,VALID,89.1511,VALID,0.100563,VALID,26.0187,VALID,47,VALID,0.479688,
2009-01-25, 00:34:04,VALID,1002.67,VALID,0,VALID,89.0367,VALID,0.100563,VALID,26.0381,VALID,37,VALID,0.366016,
2009-01-25, 00:35:04,VALID,1002.67,VALID,0,VALID,89.0443,VALID,0,VALID,26.0985,VALID,15,VALID,0.822266,
2009-01-25, 00:36:04,VALID,1002.66,VALID,0,VALID,88.8231,VALID,0.100563,VALID,26.1375,VALID,22,VALID,0.700781,
2009-01-25, 00:37:04,VALID,1002.65,VALID,0,VALID,88.7086,VALID,0.100563,VALID,26.1745,VALID,354,VALID,0.595703,
2009-01-25, 00:38:04,VALID,1002.65,VALID,0,VALID,88.4035,VALID,0.100563,VALID,26.2524,VALID,31,VALID,0.60625,
2009-01-25, 00:39:04,VALID,1002.63,VALID,0,VALID,88.1365,VALID,0,VALID,26.2739,VALID,32,VALID,0.499219,
2009-01-25, 00:40:04,VALID,1002.6,VALID,0,VALID,88.0296,VALID,0,VALID,26.2739,VALID,39,VALID,0.357031,
2009-01-25, 00:41:04,VALID,1002.57,VALID,0,VALID,87.8466,VALID,0,VALID,26.2759,VALID,24,VALID,1.00977,
2009-01-25, 00:42:04,VALID,1002.54,VALID,0,VALID,87.8694,VALID,0,VALID,26.3128,VALID,13,VALID,0.758594,
2009-01-25, 00:43:04,VALID,1002.58,VALID,0,VALID,87.5872,VALID,0,VALID,26.3128,VALID,19,VALID,0.753125,
2009-01-25, 00:44:04,VALID,1002.58,VALID,0,VALID,87.7245,VALID,0,VALID,26.3323,VALID,49,VALID,1.4293,
2009-01-25, 00:45:04,VALID,1002.58,VALID,0,VALID,87.5338,VALID,0,VALID,26.3927,VALID,20,VALID,1.05977,
2009-01-25, 00:46:04,VALID,1002.58,VALID,0,VALID,87.5185,VALID,0,VALID,26.3713,VALID,14,VALID,1.05781,
2009-01-25, 00:47:04,VALID,1002.59,VALID,0,VALID,87.2668,VALID,0,VALID,26.3907,VALID,34,VALID,1.00078,
2009-01-25, 00:48:04,VALID,1002.55,VALID,0,VALID,87.1523,VALID,0,VALID,26.4102,VALID,6,VALID,0.579297,
2009-01-25, 00:49:04,VALID,1002.57,VALID,0,VALID,87.2134,VALID,0,VALID,26.4102,VALID,5,VALID,0.603125,
2009-01-25, 00:50:04,VALID,1002.51,VALID,0,VALID,87.2134,VALID,0,VALID,26.4102,VALID,12,VALID,0.872266,
2009-01-25, 00:51:04,VALID,1002.5,VALID,0,VALID,87.16,VALID,0,VALID,26.4492,VALID,28,VALID,0.839063,
2009-01-25, 00:52:04,VALID,1002.52,VALID,0,VALID,87.0303,VALID,0,VALID,26.4492,VALID,19,VALID,0.510547,
2009-01-25, 00:53:04,VALID,1002.52,VALID,0,VALID,87.0608,VALID,0,VALID,26.4492,VALID,33,VALID,1.06758,
2009-01-25, 00:54:04,VALID,1002.5,VALID,0,VALID,86.9235,VALID,0,VALID,26.5271,VALID,21,VALID,1.98945,
2009-01-25, 00:55:04,VALID,1002.47,VALID,0,VALID,86.5115,VALID,0,VALID,26.6265,VALID,356,VALID,1.46836,
2009-01-25, 00:56:04,VALID,1002.47,VALID,0,VALID,86.1835,VALID,0,VALID,26.7024,VALID,19,VALID,1.42969,
2009-01-25, 00:57:04,VALID,1002.45,VALID,0,VALID,85.8631,VALID,0,VALID,26.7609,VALID,13,VALID,1.3043,
2009-01-25, 00:58:04,VALID,1002.48,VALID,0,VALID,85.3443,VALID,0,VALID,26.8993,VALID,39,VALID,2.06328,
2009-01-25, 00:59:04,VALID,1002.45,VALID,0,VALID,84.8866,VALID,0,VALID,26.9752,VALID,37,VALID,1.67461,
2009-01-25, 01:00:04,VALID,1002.49,VALID,0,VALID,84.5814,VALID,0,VALID,27.0336,VALID,31,VALID,1.24805,
2009-01-25, 01:01:04,VALID,1002.5,VALID,0,VALID,84.2991,VALID,0,VALID,27.0942,VALID,29,VALID,0.926562,
2009-01-25, 01:02:04,VALID,1002.47,VALID,0,VALID,84.1084,VALID,0,VALID,27.0942,VALID,47,VALID,1.18047,
2009-01-25, 01:03:04,VALID,1002.5,VALID,0,VALID,83.9558,VALID,0,VALID,27.1136,VALID,36,VALID,1.48789,
2009-01-25, 01:04:04,VALID,1002.48,VALID,0,VALID,83.8414,VALID,0,VALID,27.0921,VALID,69,VALID,1.1832,
2009-01-25, 01:05:04,VALID,1002.46,VALID,0,VALID,83.6354,VALID,0,VALID,27.1721,VALID,41,VALID,1.31289,
2009-01-25, 01:06:04,VALID,1002.42,VALID,0,VALID,83.582,VALID,0,VALID,27.1311,VALID,15,VALID,2.14609,
2009-01-25, 01:07:04,VALID,1002.4,VALID,0,VALID,83.4142,VALID,0,VALID,27.17,VALID,27,VALID,2.85195,
2009-01-25, 01:08:04,VALID,1002.41,VALID,0,VALID,83.254,VALID,0,VALID,27.2306,VALID,13,VALID,2.21133,
2009-01-25, 01:09:04,VALID,1002.42,VALID,0,VALID,83.2463,VALID,0,VALID,27.1895,VALID,28,VALID,1.63008,
2009-01-25, 01:10:04,VALID,1002.41,VALID,0,VALID,83.376,VALID,0,VALID,27.1506,VALID,39,VALID,1.74023,
2009-01-25, 01:11:04,VALID,1002.42,VALID,0,VALID,83.4523,VALID,0,VALID,27.1506,VALID,25,VALID,1.36484,
2009-01-25, 01:12:04,VALID,1002.39,VALID,0,VALID,83.3455,VALID,0,VALID,27.1721,VALID,355,VALID,0.925781,
2009-01-25, 01:13:04,VALID,1002.42,VALID,0,VALID,83.4752,VALID,0,VALID,27.1311,VALID,26,VALID,1.07031,
2009-01-25, 01:14:04,VALID,1002.43,VALID,0,VALID,83.6888,VALID,0,VALID,27.0921,VALID,25,VALID,1.06758,
2009-01-25, 01:15:04,VALID,1002.44,VALID,0,VALID,83.8414,VALID,0,VALID,27.0747,VALID,17,VALID,1.27891,
2009-01-25, 01:16:04,VALID,1002.42,VALID,0,VALID,83.7727,VALID,0,VALID,27.0942,VALID,16,VALID,1.43047,
2009-01-25, 01:17:04,VALID,1002.41,VALID,0,VALID,83.8033,VALID,0,VALID,27.0942,VALID,30,VALID,0.841016,
2009-01-25, 01:18:04,VALID,1002.44,VALID,0,VALID,84.0626,VALID,0,VALID,26.9947,VALID,33,VALID,1.09961,
2009-01-25, 01:19:04,VALID,1002.45,VALID,0,VALID,84.2457,VALID,0,VALID,26.9752,VALID,355,VALID,1.71055,
2009-01-25, 01:20:04,VALID,1002.48,VALID,0,VALID,84.3983,VALID,0,VALID,26.9557,VALID,11,VALID,1.0832,
2009-01-25, 01:21:04,VALID,1002.46,VALID,0,VALID,84.3907,VALID,0,VALID,26.9772,VALID,24,VALID,1.4582,
2009-01-25, 01:22:04,VALID,1002.49,VALID,0,VALID,84.3907,VALID,0,VALID,26.9947,VALID,14,VALID,0.896094,
2009-01-25, 01:23:04,VALID,1002.47,VALID,0,VALID,84.3754,VALID,0,VALID,26.9772,VALID,351,VALID,2.18086,
2009-01-25, 01:24:04,VALID,1002.47,VALID,0,VALID,84.2076,VALID,0,VALID,26.9947,VALID,331,VALID,1.21719,
2009-01-25, 01:25:04,VALID,1002.53,VALID,0,VALID,83.9787,VALID,0,VALID,27.0726,VALID,24,VALID,1.92109,
2009-01-25, 01:26:04,VALID,1002.5,VALID,0,VALID,83.8643,VALID,0,VALID,27.0726,VALID,25,VALID,1.12344,
2009-01-25, 01:27:04,VALID,1002.5,VALID,0,VALID,83.9482,VALID,0,VALID,27.0336,VALID,37,VALID,0.887891,
2009-01-25, 01:28:04,VALID,1002.51,VALID,0,VALID,83.8109,VALID,0,VALID,27.0747,VALID,16,VALID,2.11172,
2009-01-25, 01:29:04,VALID,1002.52,VALID,0,VALID,83.7498,VALID,0,VALID,27.0921,VALID,22,VALID,2.00273,
2009-01-25, 01:30:04,VALID,1002.48,VALID,0,VALID,83.8719,VALID,0,VALID,27.0726,VALID,22,VALID,0.957812,
2009-01-25, 01:31:04,VALID,1002.46,VALID,0,VALID,83.9253,VALID,0,VALID,27.0531,VALID,13,VALID,2.18789,
2009-01-25, 01:32:04,VALID,1002.46,VALID,0,VALID,83.9177,VALID,0,VALID,27.0747,VALID,341,VALID,1.15977,
2009-01-25, 01:33:04,VALID,1002.41,VALID,0,VALID,84.055,VALID,0,VALID,26.9947,VALID,12,VALID,1.03281,
2009-01-25, 01:34:04,VALID,1002.44,VALID,0,VALID,84.2076,VALID,0,VALID,26.9752,VALID,15,VALID,1.75508,
2009-01-25, 01:35:04,VALID,1002.39,VALID,0,VALID,84.3983,VALID,0,VALID,26.9557,VALID,16,VALID,1.48672,
2009-01-25, 01:36:04,VALID,1002.39,VALID,0,VALID,84.3907,VALID,0,VALID,26.9752,VALID,27,VALID,1.32109,
2009-01-25, 01:37:04,VALID,1002.4,VALID,0,VALID,84.1313,VALID,0,VALID,27.0336,VALID,24,VALID,1.1207,
2009-01-25, 01:38:04,VALID,1002.44,VALID,0,VALID,83.8948,VALID,0,VALID,27.0726,VALID,25,VALID,2.18047,
2009-01-25, 01:39:04,VALID,1002.46,VALID,0,VALID,83.6354,VALID,0,VALID,27.1311,VALID,22,VALID,1.76172,
2009-01-25, 01:40:04,VALID,1002.5,VALID,0,VALID,83.6202,VALID,0,VALID,27.1311,VALID,10,VALID,1.43867,
2009-01-25, 01:41:04,VALID,1002.48,VALID,0,VALID,83.4905,VALID,0.100563,VALID,27.1485,VALID,16,VALID,1.06641,
2009-01-25, 01:42:04,VALID,1002.5,VALID,0,VALID,83.5439,VALID,0,VALID,27.1095,VALID,3,VALID,1.29766,
2009-01-25, 01:43:04,VALID,1002.49,VALID,0,VALID,83.5973,VALID,0.100563,VALID,27.0921,VALID,349,VALID,2.23125,
2009-01-25, 01:44:04,VALID,1002.48,VALID,0,VALID,83.6202,VALID,0,VALID,27.1116,VALID,351,VALID,1.12852,
2009-01-25, 01:45:04,VALID,1002.49,VALID,0,VALID,83.6049,VALID,0,VALID,27.09,VALID,360,VALID,1.85859,
2009-01-25, 01:46:04,VALID,1002.53,VALID,0,VALID,83.6964,VALID,0,VALID,27.0921,VALID,33,VALID,1.25859,
2009-01-25, 01:47:04,VALID,1002.53,VALID,0,VALID,83.727,VALID,0.100563,VALID,27.0511,VALID,358,VALID,1.1457,
2009-01-25, 01:48:04,VALID,1002.52,VALID,0,VALID,83.9024,VALID,0,VALID,27.0531,VALID,12,VALID,0.908984,
2009-01-25, 01:49:04,VALID,1002.51,VALID,0,VALID,83.8338,VALID,0,VALID,27.0531,VALID,23,VALID,1.00312,
2009-01-25, 01:50:04,VALID,1002.53,VALID,0,VALID,83.9177,VALID,0,VALID,27.0336,VALID,3,VALID,0.569141,
2009-01-25, 01:51:04,VALID,1002.52,VALID,0,VALID,84.1847,VALID,0,VALID,26.9947,VALID,6,VALID,0.590234,
2009-01-25, 01:52:04,VALID,1002.48,VALID,0,VALID,84.3754,VALID,0,VALID,26.9167,VALID,34,VALID,0.536719,
2009-01-25, 01:53:04,VALID,1002.48,VALID,0,VALID,84.5661,VALID,0,VALID,26.8583,VALID,51,VALID,0.551172,
2009-01-25, 01:54:04,VALID,1002.46,VALID,0,VALID,84.7569,VALID,0,VALID,26.8173,VALID,21,VALID,0.751562,
2009-01-25, 01:55:04,VALID,1002.48,VALID,0,VALID,84.9323,VALID,0.100563,VALID,26.7998,VALID,13,VALID,0.533984,
2009-01-25, 01:56:04,VALID,1002.48,VALID,0,VALID,85.001,VALID,0,VALID,26.7978,VALID,74,VALID,0.690625,
2009-01-25, 01:57:04,VALID,1002.47,VALID,0,VALID,84.9781,VALID,0,VALID,26.7998,VALID,349,VALID,0.8875,
2009-01-25, 01:58:04,VALID,1002.43,VALID,0,VALID,85.329,VALID,0,VALID,26.7024,VALID,9,VALID,0.851563,
2009-01-25, 01:59:04,VALID,1002.46,VALID,0,VALID,85.7334,VALID,0,VALID,26.644,VALID,31,VALID,0.754687,
2009-01-25, 02:00:04,VALID,1002.44,VALID,0,VALID,85.5426,VALID,0,VALID,26.6635,VALID,13,VALID,1.01602,
2009-01-25, 02:01:04,VALID,1002.41,VALID,0,VALID,85.4435,VALID,0,VALID,26.683,VALID,6,VALID,0.702344,
2009-01-25, 02:02:04,VALID,1002.37,VALID,0,VALID,85.329,VALID,0,VALID,26.6614,VALID,344,VALID,0.745703,
2009-01-25, 02:03:04,VALID,1002.36,VALID,0,VALID,85.596,VALID,0,VALID,26.5641,VALID,9,VALID,0.742578,
2009-01-25, 02:04:04,VALID,1002.34,VALID,0,VALID,86.0538,VALID,0,VALID,26.5076,VALID,350,VALID,0.888672,
2009-01-25, 02:05:04,VALID,1002.3,VALID,0,VALID,86.2903,VALID,0,VALID,26.4082,VALID,346,VALID,0.975781,
2009-01-25, 02:06:04,VALID,1002.29,VALID,0,VALID,86.5039,VALID,0,VALID,26.3887,VALID,337,VALID,0.494531,
2009-01-25, 02:07:04,VALID,1002.29,VALID,0,VALID,86.5268,VALID,0,VALID,26.3713,VALID,358,VALID,1.25273,
2009-01-25, 02:08:04,VALID,1002.27,VALID,0,VALID,86.9692,VALID,0.100563,VALID,26.3128,VALID,4,VALID,0.585547,
2009-01-25, 02:09:04,VALID,1002.24,VALID,0,VALID,87.16,VALID,0,VALID,26.2524,VALID,355,VALID,1.01836,
2009-01-25, 02:10:04,VALID,1002.25,VALID,0,VALID,87.3507,VALID,0,VALID,26.2349,VALID,11,VALID,0.957422,
2009-01-25, 02:11:04,VALID,1002.26,VALID,0,VALID,87.427,VALID,0,VALID,26.2349,VALID,8,VALID,1.60352,
2009-01-25, 02:12:04,VALID,1002.24,VALID,0,VALID,87.1981,VALID,0,VALID,26.2933,VALID,18,VALID,0.838672,
2009-01-25, 02:13:04,VALID,1002.18,VALID,0,VALID,87.2134,VALID,0.100563,VALID,26.2719,VALID,340,VALID,0.822266,
2009-01-25, 02:14:04,VALID,1002.17,VALID,0,VALID,86.6336,VALID,0,VALID,26.4082,VALID,32,VALID,1.93711,
2009-01-25, 02:15:04,VALID,1002.18,VALID,0,VALID,86.0233,VALID,0,VALID,26.5641,VALID,354,VALID,0.699609,
2009-01-25, 02:16:04,VALID,1002.18,VALID,0,VALID,85.8325,VALID,0,VALID,26.5855,VALID,1,VALID,0.704687,
2009-01-25, 02:17:04,VALID,1002.17,VALID,0,VALID,85.9088,VALID,0.100563,VALID,26.5661,VALID,6,VALID,1.1582,
2009-01-25, 02:18:04,VALID,1002.14,VALID,0,VALID,85.9317,VALID,0,VALID,26.5466,VALID,353,VALID,0.953125,
2009-01-25, 02:19:04,VALID,1002.18,VALID,0,VALID,85.8631,VALID,0.100563,VALID,26.5446,VALID,359,VALID,0.965234,
2009-01-25, 02:20:04,VALID,1002.15,VALID,0,VALID,85.9012,VALID,0.100563,VALID,26.5271,VALID,34,VALID,0.517969,
2009-01-25, 02:21:04,VALID,1002.15,VALID,0,VALID,86.1453,VALID,0.100563,VALID,26.4492,VALID,24,VALID,0.755078,
2009-01-25, 02:22:04,VALID,1002.15,VALID,0,VALID,86.3513,VALID,0.100563,VALID,26.3887,VALID,16,VALID,1.76445,
2009-01-25, 02:23:04,VALID,1002.13,VALID,0,VALID,85.7944,VALID,0.100563,VALID,26.5251,VALID,37,VALID,1.53828,
2009-01-25, 02:24:04,VALID,1002.16,VALID,0,VALID,85.4129,VALID,0,VALID,26.642,VALID,14,VALID,0.649609,
2009-01-25, 02:25:04,VALID,1002.12,VALID,0,VALID,85.4053,VALID,0,VALID,26.605,VALID,5,VALID,0.821094,
2009-01-25, 02:26:04,VALID,1002.13,VALID,0,VALID,85.6647,VALID,0.100563,VALID,26.5056,VALID,16,VALID,0.903125,
2009-01-25, 02:27:04,VALID,1002.13,VALID,0,VALID,85.8783,VALID,0,VALID,26.4687,VALID,15,VALID,1.21953,
2009-01-25, 02:28:04,VALID,1002.1,VALID,0,VALID,85.7181,VALID,0,VALID,26.5271,VALID,8,VALID,0.732031,
2009-01-25, 02:29:04,VALID,1002.1,VALID,0,VALID,85.6418,VALID,0.100563,VALID,26.5076,VALID,21,VALID,0.661328,
2009-01-25, 02:30:04,VALID,1002.1,VALID,0,VALID,85.8249,VALID,0.100563,VALID,26.4687,VALID,21,VALID,0.824609,
2009-01-25, 02:31:04,VALID,1002.08,VALID,0,VALID,86.0385,VALID,0,VALID,26.4102,VALID,10,VALID,0.691797,
2009-01-25, 02:32:04,VALID,1002.09,VALID,0,VALID,86.1224,VALID,0,VALID,26.4102,VALID,7,VALID,0.840625,
2009-01-25, 02:33:04,VALID,1002.07,VALID,0,VALID,86.2292,VALID,0,VALID,26.4102,VALID,7,VALID,0.848437,
2009-01-25, 02:34:04,VALID,1002.07,VALID,0,VALID,86.008,VALID,0,VALID,26.4687,VALID,7,VALID,1.22344,
2009-01-25, 02:35:04,VALID,1002.09,VALID,0,VALID,85.8249,VALID,0,VALID,26.5291,VALID,6,VALID,0.736719,
2009-01-25, 02:36:04,VALID,1002.07,VALID,0,VALID,85.8402,VALID,0,VALID,26.4687,VALID,27,VALID,0.572656,
2009-01-25, 02:37:04,VALID,1002.06,VALID,0,VALID,85.9775,VALID,0.100563,VALID,26.4082,VALID,24,VALID,0.440625,
2009-01-25, 02:38:04,VALID,1002.01,VALID,0,VALID,86.1911,VALID,0,VALID,26.3907,VALID,13,VALID,0.942578,
2009-01-25, 02:39:04,VALID,1002.03,VALID,0,VALID,86.3437,VALID,0,VALID,26.3713,VALID,24,VALID,0.860547,
2009-01-25, 02:40:04,VALID,1002,VALID,0,VALID,86.4734,VALID,0.100563,VALID,26.3108,VALID,351,VALID,0.646094,
2009-01-25, 02:41:04,VALID,1001.96,VALID,0,VALID,86.6641,VALID,0,VALID,26.3108,VALID,27,VALID,1.39336,
2009-01-25, 02:42:04,VALID,1001.93,VALID,0,VALID,86.4352,VALID,0,VALID,26.4102,VALID,345,VALID,1.05117,
2009-01-25, 02:43:04,VALID,1001.92,VALID,0,VALID,86.3132,VALID,0.100563,VALID,26.4082,VALID,354,VALID,0.58125,
2009-01-25, 02:44:04,VALID,1001.89,VALID,0,VALID,86.3284,VALID,0,VALID,26.3907,VALID,355,VALID,0.658203,
2009-01-25, 02:45:04,VALID,1001.87,VALID,0,VALID,86.4581,VALID,0.100563,VALID,26.3518,VALID,22,VALID,1.01172,
2009-01-25, 02:46:04,VALID,1001.85,VALID,0,VALID,86.5878,VALID,0.100563,VALID,26.2913,VALID,2,VALID,0.474219,
2009-01-25, 02:47:04,VALID,1001.85,VALID,0,VALID,86.8929,VALID,0,VALID,26.2134,VALID,347,VALID,1.17617,
2009-01-25, 02:48:04,VALID,1001.86,VALID,0,VALID,87.0913,VALID,0,VALID,26.2349,VALID,36,VALID,1.02617,
2009-01-25, 02:49:04,VALID,1001.83,VALID,0,VALID,87.0074,VALID,0,VALID,26.2329,VALID,16,VALID,0.624609,
2009-01-25, 02:50:04,VALID,1001.8,VALID,0,VALID,87.076,VALID,0,VALID,26.2349,VALID,25,VALID,1.09727,
2009-01-25, 02:51:04,VALID,1001.78,VALID,0,VALID,87.0532,VALID,0.100563,VALID,26.3323,VALID,3,VALID,0.846094,
2009-01-25, 02:52:04,VALID,1001.75,VALID,0,VALID,86.748,VALID,0,VALID,26.3713,VALID,34,VALID,0.985156,
2009-01-25, 02:53:04,VALID,1001.72,VALID,0,VALID,86.7404,VALID,0,VALID,26.3907,VALID,4,VALID,1.15273,
2009-01-25, 02:54:04,VALID,1001.69,VALID,0,VALID,86.6412,VALID,0,VALID,26.4102,VALID,16,VALID,0.920313,
2009-01-25, 02:55:04,VALID,1001.68,VALID,0,VALID,86.5802,VALID,0.100563,VALID,26.3907,VALID,24,VALID,0.600391,
2009-01-25, 02:56:04,VALID,1001.67,VALID,0,VALID,86.5573,VALID,0,VALID,26.4102,VALID,13,VALID,1.01328,
2009-01-25, 02:57:04,VALID,1001.63,VALID,0,VALID,86.5802,VALID,0.100563,VALID,26.4297,VALID,3,VALID,0.8,
2009-01-25, 02:58:04,VALID,1001.64,VALID,0,VALID,86.6031,VALID,0.100563,VALID,26.4297,VALID,18,VALID,1.49805,
2009-01-25, 02:59:04,VALID,1001.64,VALID,0,VALID,86.4276,VALID,0,VALID,26.4881,VALID,21,VALID,0.789844,
2009-01-25, 03:00:04,VALID,1001.63,VALID,0,VALID,86.336,VALID,0,VALID,26.4881,VALID,24,VALID,0.737109,
2009-01-25, 03:01:04,VALID,1001.56,VALID,0,VALID,86.4734,VALID,0,VALID,26.5271,VALID,18,VALID,1.48359,
2009-01-25, 03:02:04,VALID,1001.58,VALID,0,VALID,86.0385,VALID,0.100563,VALID,26.644,VALID,16,VALID,1.53086,
2009-01-25, 03:03:04,VALID,1001.55,VALID,0,VALID,85.741,VALID,0.100563,VALID,26.6809,VALID,3,VALID,1.34766,
2009-01-25, 03:04:04,VALID,1001.54,VALID,0,VALID,85.596,VALID,0,VALID,26.6809,VALID,357,VALID,0.677344,
2009-01-25, 03:05:04,VALID,1001.54,VALID,0,VALID,85.4053,VALID,0.100563,VALID,26.642,VALID,355,VALID,0.748047,
2009-01-25, 03:06:04,VALID,1001.54,VALID,0,VALID,85.7334,VALID,0.100563,VALID,26.605,VALID,10,VALID,0.561328,
2009-01-25, 03:07:04,VALID,1001.53,VALID,0,VALID,86.0004,VALID,0.100563,VALID,26.5251,VALID,25,VALID,0.985937,
2009-01-25, 03:08:04,VALID,1001.55,VALID,0,VALID,86.2216,VALID,0,VALID,26.5076,VALID,20,VALID,0.560547,
2009-01-25, 03:09:04,VALID,1001.52,VALID,0,VALID,86.5268,VALID,0,VALID,26.4687,VALID,16,VALID,1.22969,
2009-01-25, 03:10:04,VALID,1001.52,VALID,0,VALID,86.809,VALID,0,VALID,26.4687,VALID,1,VALID,0.986328,
2009-01-25, 03:11:04,VALID,1001.54,VALID,0,VALID,86.542,VALID,0,VALID,26.4472,VALID,19,VALID,1.16055,
2009-01-25, 03:12:04,VALID,1001.54,VALID,0,VALID,86.6641,VALID,0,VALID,26.4492,VALID,360,VALID,1.08164,
2009-01-25, 03:13:04,VALID,1001.55,VALID,0,VALID,86.4734,VALID,0.100563,VALID,26.4082,VALID,11,VALID,0.619922,
2009-01-25, 03:14:04,VALID,1001.58,VALID,0,VALID,86.7022,VALID,0.100563,VALID,26.3108,VALID,11,VALID,0.822266,
2009-01-25, 03:15:04,VALID,1001.58,VALID,0,VALID,87.5185,VALID,0,VALID,26.2913,VALID,17,VALID,1.65898,
2009-01-25, 03:16:04,VALID,1001.62,VALID,0,VALID,87.0913,VALID,0.100563,VALID,26.4102,VALID,353,VALID,1.17891,
2009-01-25, 03:17:04,VALID,1001.63,VALID,0,VALID,86.8014,VALID,0.100563,VALID,26.3303,VALID,350,VALID,0.746484,
2009-01-25, 03:18:04,VALID,1001.62,VALID,0,VALID,87.0532,VALID,0.100563,VALID,26.2933,VALID,16,VALID,0.812891,
2009-01-25, 03:19:04,VALID,1001.65,VALID,0,VALID,87.2668,VALID,0,VALID,26.2154,VALID,350,VALID,0.744531,
2009-01-25, 03:20:04,VALID,1001.65,VALID,0,VALID,88.0983,VALID,0.100563,VALID,26.1959,VALID,32,VALID,1.61055,
2009-01-25, 03:21:04,VALID,1001.71,VALID,0,VALID,87.7855,VALID,0,VALID,26.2544,VALID,9,VALID,1.44062,
2009-01-25, 03:22:04,VALID,1001.71,VALID,0,VALID,87.8771,VALID,0,VALID,26.2719,VALID,28,VALID,1.62461,
2009-01-25, 03:23:04,VALID,1001.72,VALID,0,VALID,87.6406,VALID,0,VALID,26.3498,VALID,34,VALID,1.03437,
2009-01-25, 03:24:04,VALID,1001.77,VALID,0,VALID,87.2744,VALID,0.100563,VALID,26.4082,VALID,3,VALID,0.919922,
2009-01-25, 03:25:04,VALID,1001.78,VALID,0,VALID,87.2286,VALID,0,VALID,26.4102,VALID,12,VALID,0.708594,
2009-01-25, 03:26:04,VALID,1001.82,VALID,0,VALID,87.2439,VALID,0.100563,VALID,26.4492,VALID,33,VALID,0.658203,
2009-01-25, 03:27:04,VALID,1001.86,VALID,0,VALID,87.1752,VALID,0,VALID,26.4492,VALID,31,VALID,0.817969,
2009-01-25, 03:28:04,VALID,1001.86,VALID,0,VALID,87.2896,VALID,0,VALID,26.4277,VALID,6,VALID,1.11758,
2009-01-25, 03:29:04,VALID,1001.88,VALID,0,VALID,87.0455,VALID,0,VALID,26.5076,VALID,61,VALID,0.751562,
2009-01-25, 03:30:04,VALID,1001.9,VALID,0,VALID,86.8777,VALID,0.100563,VALID,26.5466,VALID,62,VALID,0.449609,
2009-01-25, 03:31:04,VALID,1001.93,VALID,0,VALID,86.8548,VALID,0,VALID,26.5271,VALID,44,VALID,0.663672,
2009-01-25, 03:32:04,VALID,1001.91,VALID,0,VALID,86.7938,VALID,0,VALID,26.5271,VALID,28,VALID,0.399219,
2009-01-25, 03:33:04,VALID,1001.9,VALID,0,VALID,86.7709,VALID,0.100563,VALID,26.4861,VALID,27,VALID,0.298438,
2009-01-25, 03:34:04,VALID,1001.87,VALID,0,VALID,86.7327,VALID,0.100563,VALID,26.4667,VALID,21,VALID,0.423438,
2009-01-25, 03:35:04,VALID,1001.84,VALID,0,VALID,86.6793,VALID,0,VALID,26.4297,VALID,44,VALID,0.688281,
2009-01-25, 03:36:04,VALID,1001.84,VALID,0,VALID,86.8472,VALID,0,VALID,26.4102,VALID,359,VALID,0.766797,
2009-01-25, 03:37:04,VALID,1001.84,VALID,0,VALID,86.7404,VALID,0.100563,VALID,26.3498,VALID,21,VALID,1.01367,
2009-01-25, 03:38:04,VALID,1001.81,VALID,0,VALID,86.7709,VALID,0.100563,VALID,26.3713,VALID,354,VALID,0.585547,
2009-01-25, 03:39:04,VALID,1001.85,VALID,0,VALID,86.7861,VALID,0,VALID,26.2913,VALID,2,VALID,0.794922,
2009-01-25, 03:40:04,VALID,1001.81,VALID,0,VALID,86.9464,VALID,0,VALID,26.2739,VALID,19,VALID,1.14609,
2009-01-25, 03:41:04,VALID,1001.81,VALID,0,VALID,87.0455,VALID,0,VALID,26.2524,VALID,355,VALID,1.08008,
2009-01-25, 03:42:04,VALID,1001.77,VALID,0,VALID,87.0379,VALID,0,VALID,26.2544,VALID,13,VALID,0.623047,
2009-01-25, 03:43:04,VALID,1001.72,VALID,0,VALID,87.2057,VALID,0.100563,VALID,26.1745,VALID,14,VALID,0.63125,